View from above orbital plane
|
View from above satellite
|
Ground track
|
The orbit data is extracted from the following two-line orbital elements,
1 21393U 91037B 21110.45258304 .00002771 00000-0 20702-3 0 9995
2 21393 24.9812 18.6387 0906791 95.2550 275.1925 13.52167958441048
Epoch (UTC): | 20 April 2021 10:51:43 |
Eccentricity: | 0.0906791 |
inclination: | 24.9812° |
perigee height: | 389 km |
apogee height: | 1739 km |
right ascension of ascending node: | 18.6387° |
argument of perigee: | 95.2550° |
revolutions per day: | 13.52167958 |
mean anomaly at epoch: | 275.1925° |
orbit number at epoch: | 44104 |
The dashed part of the orbit path shows where the satellite is in the earth's shadow,
|
|